IRIDIUM 32 [-]

Last updated on March 11, 2019, 3:10 a.m. UTC

1 24945U 97051B   19069.51667833  .21575699 -12702-5  24766-3 0  9990
2 24945  86.3529  20.3101 0050471  74.5146 287.5413 16.44386180125289

Satellite is not in orbit.